Regional Weather Roundup
Issued by NWS

Home | Current Version | Previous Version | Text Only | Print | Product List | Glossary Off
Versions: 1 2 3 4 5 6 7 8 9 10 11 12 13 14 15 16 17 18 19 20 21 22 23 24 25 26 27 28 29 30 31 32 33 34 35 36 37 38 39 40 41 42 43 44 45 46 47 48 49 50

000
ASUS43 KMKX 062200
RWRWI

WISCONSIN REGIONAL WEATHER ROUNDUP
NATIONAL WEATHER SERVICE MILWAUKEE/SULLIVAN WI
400 PM CST SAT FEB 06 2016

NOTE: "FAIR" INDICATES FEW OR NO CLOUDS BELOW 12,000 FEET WITH NO
SIGNIFICANT WEATHER AND/OR OBSTRUCTIONS TO VISIBILITY.

WIZ001-002-006>008-014>016-023>028-062300-
NORTHWEST WISCONSIN

CITY           SKY/WX    TMP DP  RH WIND       PRES   REMARKS
SUPERIOR ARPT  CLOUDY    37  26  65 SW13      29.85S WCI  28
ASHLAND        CLOUDY    37  24  59 S13G23    29.86F WCI  29
HAYWARD        CLOUDY    33  23  66 S13       29.89F WCI  24
SIREN          MOSUNNY   34  25  68 S13       29.90F WCI  25
CUMBERLAND     MOSUNNY   32  23  69 S13       29.92F WCI  22
RICE LAKE      MOSUNNY   33  24  71 S10       29.95F WCI  24
CHETEK         CLOUDY    32  24  73 S9        29.95F WCI  24
LADYSMITH      CLOUDY    34  23  64 S12G17    29.97F WCI  25
EAU CLAIRE     NOT AVBL
MENOMONIE      CLOUDY    36  25  64 S13       29.99F WCI  27
NEW RICHMOND   CLOUDY    33  26  74 S15G22    29.94F WCI  23
OSCEOLA        MOSUNNY   34  27  77 S12G20    29.96F WCI  25
$$

WIZ003>005-009-010-017-018-062300-
NORTH CENTRAL WISCONSIN

CITY           SKY/WX    TMP DP  RH WIND       PRES   REMARKS
MANITOWISH WTR CLOUDY    31  20  64 S12       29.90F WCI  22
ARBOR VITAE    CLOUDY    33  22  64 S12       29.91F WCI  24
WOODRUFF       CLOUDY    33  22  64 S12       29.91F WCI  24
RHINELANDER    MOSUNNY   31  20  63 S10       29.94F WCI  22
EAGLE RIVER    CLOUDY    30  19  62 S8        29.92F WCI  22
LAND O LAKES   CLOUDY    30  20  65 S8        29.92F WCI  23
PHILLIPS       CLOUDY    33  22  63 SW13G20   29.92F WCI  24
TOMAHAWK       PTSUNNY   33  21  60 S5        29.96F WCI  28
MEDFORD        SUNNY     31  21  67 S10       29.97F WCI  22
MERRILL        SUNNY     32  22  67 SW8       29.99F WCI  25
$$

WIZ029-030-035-036-043>047-062300-
CENTRAL WISCONSIN

CITY           SKY/WX    TMP DP  RH WIND       PRES   REMARKS
WAUSAU         MOSUNNY   32  23  69 S10       29.98F WCI  24
MOSINEE        SUNNY     30  25  80 S12       30.01F WCI  21
MARSHFIELD     SUNNY     34  21  59 SW13      29.99F WCI  25
STEVENS POINT  SUNNY     31  23  72 SW10      30.03F WCI  22
WAUPACA        MOSUNNY   36  25  64 S6        30.06F WCI  31
WAUTOMA        NOT AVBL
WISC RAPIDS    MOSUNNY   33  22  63 S9        30.04F WCI  25
CAMP DOUGLAS   NOT AVBL
$$

WIZ011>013-019>022-031-037>040-048>050-062300-
NORTHEAST WISCONSIN

CITY           SKY/WX    TMP DP  RH WIND       PRES   REMARKS
ANTIGO         CLOUDY    29  22  75 SW12      29.99F WCI  19
SHAWANO        CLOUDY    33  24  70 SW9       30.06S WCI  25
OCONTO         CLOUDY    30  25  79 SW9       30.06S WCI  22
STURGEON BAY   CLOUDY    28  21  74 SW8       30.08S WCI  20
GREEN BAY      CLOUDY    30  24  78 SW9       30.07S WCI  22
MANITOWOC      CLOUDY    32  25  74 SW12      30.09F WCI  23
APPLETON       PTSUNNY   32  23  69 SW12      30.05F WCI  23
CLINTONVILLE   CLOUDY    32  25  74 SW9       30.06S WCI  24
OSHKOSH        CLOUDY    31  24  75 SW9       30.08F WCI  23
$$

WIZ032>034-041-042-053>061-062300-
SOUTHWEST WISCONSIN

CITY           SKY/WX    TMP DP  RH WIND       PRES   REMARKS
LA CROSSE      CLOUDY    32  24  72 S9        30.07F WCI  24
SPARTA         MOSUNNY   36  24  63 SW7       30.07F WCI  30
VIROQUA        CLOUDY    32  25  74 SW12      30.07S WCI  23
BOSCOBEL       SUNNY     35  26  69 S8        30.12S WCI  29
PRAIRIE DU CHI CLOUDY    32  26  77 S9        30.12S WCI  24
PLATTEVILLE    CLOUDY    32  28  87 SW9       30.13S WCI  24
$$

WIZ056-057-062-063-064-067-068-062300-
SOUTH CENTRAL WISCONSIN

CITY           SKY/WX    TMP DP  RH WIND       PRES   REMARKS
REEDSBURG      SUNNY     33  24  70 SW8       30.09S WCI  26
BARABOO/DELLS  SUNNY     33  23  68 SW8       30.09S WCI  26
LONE ROCK      SUNNY     33  25  72 SW8       30.11F WCI  26
MINERAL POINT  CLOUDY    32  28  86 SW10      30.10F WCI  24
MADISON        MOSUNNY   32  25  75 SW8       30.11S WCI  25
MIDDLETON      MOSUNNY   34  27  76 SW8       30.11S WCI  27
WATERTOWN      CLOUDY    32  28  83 SW9       30.11F WCI  24
MONROE         MOSUNNY   32  30  93 W12       30.12S WCI  23
JANESVILLE     SUNNY     37  28  70 W6        30.13S WCI  33
$$

WIZ051-052-058>065-066-070>072-062300-
SOUTHEAST WISCONSIN

CITY           SKY/WX    TMP DP  RH WIND       PRES   REMARKS
MILWAUKEE      CLOUDY    34  26  72 W9        30.12F WCI  27
WAUKESHA       CLOUDY    30  25  80 SW13      30.13S WCI  20
MILWAUKEE/TIMM CLOUDY    34  25  69 W12       30.12F WCI  25
RACINE         MOSUNNY   35  26  69 W6        30.14F WCI  30
BURLINGTON     SUNNY     34  26  74 W5        30.13F WCI  29
KENOSHA        SUNNY     37  28  70 W12       30.13F WCI  29
FOND DU LAC    CLOUDY    32  24  72 SW9       30.09S WCI  24
SHEBOYGAN      CLOUDY    31  24  75 SW12      30.09F WCI  22
WEST BEND      CLOUDY    32  27  80 SW7       30.10S WCI  26
JUNEAU         CLOUDY    31  26  80 SW10      30.12S WCI  22
$$

LSZ147-162-062300-
LAKE SUPERIOR

STATION/POSITION TIME  TEMP    WIND        PRES    WAVE
                       AIR SEA DIR/SP/G            HT/PER
                 (UTC) (F)     (DEG/KT/KT) (MB)    (FT/S)
DEVILS ISLAND    2100   32     160/  6/  8 1012.5F
SAXON HARBOR     2100   37                 1011.9F
$$

LMZ867-665-643>646-062300-
LAKE MICHIGAN

STATION/POSITION TIME  TEMP    WIND        PRES    WAVE
                       AIR SEA DIR/SP/G            HT/PER
                 (UTC) (F)     (DEG/KT/KT) (MB)    (FT/S)
CHAMBERS ISLAND  2100   30     200/  6/  9 1017.9S
ALGOMA LAKESHORE 2111          260/ 10/ 13   N/A
KEWAUNEE LAKESHO 2100   30     240/  4/ 11 1017.8F
SHEBOYGAN LAKESH 2100   32     230/ 10/ 12 1020.6F
PORT WASHINGTON  2140   34     250/  6/ 13 1020.7S
MILWAUKEE LAKESH 2110   33     250/ 12/ 14   N/A
KENOSHA   LAKESH 2100   37     250/ 13/ 16 1020.7F
$$

TC  - TEMPERATURE IN CELSIUS
VSB - VISIBILITY IN STATUTE MILES
WCI - WIND CHILL INDEX
HX  - HEAT INDEX




USA.gov is the U.S. government's official web portal to all federal, state and local government web resources and services.